Погода в Лискинском

Россия / Воронежская область     51°01′28″N   39°32′49″E
темп.,
°C
ветер,
м/с
пор.,
м/с
влажн.,
%
обл.,
%
осадки,
мм/ч
давл.,
гПа
погр.,
м
17 мая, пн
пн1700:00+17в337733 0.0 101039
03:00+15вюв41076100 0.0 1010155
06:00+16вюв41171100 0.0 1009194
09:00+22вюв6155884 0.0 1009568
12:00+26вюв81348100 0.0 10081427
15:00+27юв815475 0.0 10082183
18:00+24юв511565 0.0 1008371
21:00+19вюв48702 0.0 1008112
18 мая, вт
вт1800:00+17вюв34707 0.0 100852
03:00+15ююв227599 0.0 100824
06:00+16вюв357825 0.0 100898
09:00+19ююв4861100 0.0 1008390
12:00+23юв564665 0.0 1007972
15:00+24ююв574679 0.0 10071519
18:00+21юз4872100 0.1 1007306
21:00+16юз4887100 0.8 1008261
19 мая, ср
ср1900:00+15зюз249098 0.0 1007118
03:00+15ююв2492100 0.0 1008108
06:00+15ююв3692100 0.0 1009186
09:00+19ю45700 0.0 1008746
12:00+22ююв355578 0.0 10081347
15:00+23юв4651100 0.1 10072166
18:00+17юз6883100 0.4 1007370
21:00+13ююв339599 1.1 100933
20 мая, чт
чт2000:00+13ююз3693100 0.3 1007225
03:00+13ююв379494 0.3 1007267
06:00+12ю489315 0.0 1008312
09:00+15ю6883100 0.1 1008805
12:00+16ю688179 0.6 1009890
15:00+18юз686774 1.1 10101345
18:00+17ююз57715 0.2 10121037
21:00+13ю3490100 0.2 101347
21 мая, пт
пт2100:00+12ю36905 0.0 1013101
03:00+12ююв3986100 0.0 1013180
06:00+13ю3887100 0.0 1014238
09:00+18ю477277 0.1 1014616
12:00+21ю685594 0.7 10131402
15:00+22ююз5753100 0.7 10131582
18:00+20з3571100 0.4 1014238
21:00+15с4890100 0.8 1015199